Location: Unspecified
(33.3110°N, 0.0000°E)
Time: 14:01:15
(UTC+00:00)

ISS - Visible Passes

Search period start: 21 May 2019 00:00
Search period end: 31 May 2019 00:00
Orbit: 407 x 410 km, 51.6° (Epoch: 21 May)

Date Brightness Start Highest point End Pass type
(mag) Time Alt. Az. Time Alt. Az. Time Alt. Az.
21 May0.301:46:09E01:46:09E01:37:07NNWvisible
21 May -3.2 03:19:22 39° SSE 03:19:22 39° SSE 03:21:41 10° SSE visible
21 May -1.0 19:53:43 10° W 19:56:19 21° NW 19:58:55 10° NNE visible
23 May -0.2 19:50:37 10° NW 19:51:17 10° NNW 19:51:56 10° NNW visible
30 May -0.8 21:59:03 10° NNW 22:00:04 15° N 22:00:04 15° N visible
